Home > Weather > Cahul > Past weeks

Flag for Moldova Past Weather in Cahul, Moldova — Yesterday and Last 2 Weeks

Now
64 °F

Passing clouds.


Feels Like: 64 °F
Forecast: 62 / 88 °F
Wind: 2 mph from North

Location: Galati

Current Time: Aug 27, 2016 at 4:37:09 AM

Latest Report: Aug 27, 2016 at 4:00 AM


Visibility: 13 mi

Pressure: 30.19 "Hg

Humidity: 55%

Dew Point: 48 °F

Location of CahulLocation

Past Weather in Cahul — Graph

°F

Cahul Temperature Yesterday

Maximum temperature yesterday: 82 °F (at 4:00 PM)
Minimum temperature yesterday: 62 °F (at 7:00 AM)
Average temperature yesterday: 73 °F

High & Low Weather Summary for the Past Weeks

 TemperatureHumidityPressure
High93 °F (Aug 22, 4:00 PM)98% (Aug 12, 4:00 AM)30.23 "Hg (Aug 12, 4:00 AM)
Low54 °F (Aug 14, 7:00 AM)28% (Aug 13, 7:00 PM)29.82 "Hg (Aug 18, 6:00 AM)
Average73 °F60%30.03 "Hg
* Reported Aug 12 3:00 AM — Aug 27 3:00 AM, Cahul, Weather by CustomWeather, © 2016

Note: Actual official high and low records may vary slightly from our data, if they occured in-between our weather recording intervals... More about our weather records

Advertising

Cahul Weather History for the Previous 24 Hours

Scroll right to see more
 ConditionsComfort  
Time TempWeatherWind HumidityBarometerVisibility
3:00 AM
Sat, Aug 27
67 °FClear.2 mph51%30.18 "Hg12 mi
2:00 AM70 °FClear.2 mph44%30.17 "Hg12 mi
1:00 AM71 °FClear.2 mph42%30.18 "Hg12 mi
12:00 AM71 °FClear.2 mph41%30.18 "Hg12 mi
11:00 PM
Fri, Aug 26
73 °FPassing clouds.2 mph39%30.17 "Hg12 mi
10:00 PM73 °FPassing clouds.2 mph38%30.17 "Hg12 mi
9:00 PM76 °FPassing clouds.2 mph35%30.16 "Hg12 mi
8:00 PM78 °FPassing clouds.2 mph33%30.15 "Hg12 mi
7:00 PM79 °FPassing clouds.2 mph33%30.15 "Hg12 mi
6:00 PM81 °FScattered clouds.3 mph31%30.14 "Hg12 mi
5:00 PM80 °FScattered clouds.5 mph33%30.15 "Hg12 mi
4:00 PM82 °FScattered clouds.5 mph30%30.16 "Hg12 mi
3:00 PM82 °FScattered clouds.5 mph32%30.16 "Hg12 mi
2:00 PM80 °FScattered clouds.5 mph36%30.17 "Hg12 mi
1:00 PM80 °FScattered clouds.6 mph38%30.17 "Hg12 mi
12:00 PM77 °FPassing clouds.3 mph43%30.18 "Hg12 mi
11:00 AM74 °FPassing clouds.3 mph52%30.18 "Hg12 mi
10:00 AM71 °FPassing clouds.3 mph55%30.18 "Hg12 mi
9:00 AM67 °FPassing clouds.3 mph62%30.18 "Hg12 mi
8:00 AM65 °FScattered clouds.3 mph62%30.17 "Hg12 mi
7:00 AM62 °FPassing clouds.2 mph67%30.17 "Hg12 mi
6:00 AM64 °FClear.2 mph62%30.15 "Hg12 mi
5:00 AM65 °FClear.3 mph59%30.14 "Hg12 mi
4:00 AM66 °FPassing clouds.3 mph56%30.14 "Hg12 mi
Weather by CustomWeather, © 2016

See weather overviewHow to use our weather pages